Location: Newark
(34.6283°N, 36.0776°E)
Time: 05:03:43
(UTC+00:00)

Tiros 1 despin weight - Pass Details

Date: 24 September 2019
Orbit: 593 x 643 km, 48.2° (Epoch: 20 October)

Event Time Altitude Azimuth Distance (km) Brightness Sun altitude
Rises 06:42:15 0° 204° (SSW) 2,912 ? 37.8°
Reaches altitude 10° 06:44:49 10° 193° (SSW) 2,000 ? 38.3°
Maximum altitude 06:48:46 28° 134° (SE) 1,160 ? 38.9°
Drops below altitude 10° 06:52:41 10° 74° (ENE) 1,983 ? 39.6°
Sets 06:55:13 0° 63° (ENE) 2,882 ? 40.0°
